[[{"header":{"parameterUnit":"m.s-1","parameterCategory":1,"la1":30.2991,"la2":30.254,"lo1":-89.0895,"lo2":-89.0444,"dy":0.0017,"dx":0.0017,"nx":28,"ny":28,"refTime":"2025-12-04T09:00:00:Z","depth":0,"parameterNumber":2,"parameterNumberName":"U-component_of_WINDS"},"data":[0,0,0,0,0,0,0,0,0,0,0,0,0,0,0,0,0,0,0,0,0,0,0,0,0,0,0,0,0,0,0,0,0,0,0,0,0,0,0,0,0,0,0,0,0,0,0,0,0,0,0,0,0,0,0,0,0,0,1.2104,1.2103,0,1.2039,1.2038,1.2037,1.2007,1.2007,1.2007,1.2007,1.1937,1.1935,1.1933,0,0,0,0,0,0,0,0,0,0,0,0,0,1.2197,1.2196,1.2104,1.2103,1.2102,1.2039,1.2038,1.2037,1.2007,1.2007,1.2007,1.2007,1.1938,1.1935,1.1933,0,0,0,0,0,0,0,0,0,0,0,0,0,1.2147,1.2195,1.2104,1.2079,1.2077,1.2039,1.2038,1.2037,1.2007,1.2007,1.2007,1.2007,1.1938,1.1935,1.1933,1.1913,0,0,1.1924,1.1923,0,0,0,0,0,0,0,0,1.215,1.2143,1.2084,1.2081,1.2078,1.2031,1.2045,1.1995,1.2007,1.2033,1.2007,1.2007,1.1968,1.1963,1.195,1.191,1.1907,1.1924,1.1922,1.1921,1.192,0,0,0,0,0,0,0,1.2153,1.2146,1.2078,1.2083,1.2079,1.207,1.2063,1.2036,1.2001,1.2031,1.2029,1.2022,1.1966,1.1953,1.1948,1.1906,1.1924,1.1921,1.1919,1.1918,1.1846,1.1845,0,0,0,0,0,0,1.2161,1.2149,1.208,1.2076,1.2115,1.2069,1.2061,1.2046,1.2001,1.1994,1.2022,1.202,1.1958,1.1952,1.1946,1.192,1.1921,1.1918,1.1916,1.1846,1.1846,1.1845,0,0,0,0,0,0,1.2163,1.2155,1.2082,1.2112,1.2102,1.2067,1.2051,1.2045,1.2031,1.1994,1.1987,1.2015,1.1958,1.195,1.1922,1.1917,1.1917,1.1914,1.1846,1.1846,1.1845,1.1868,0,0,0,0,0,0,1.2166,1.2156,1.215,1.2112,1.2101,1.2061,1.205,1.2043,1.2027,1.2025,1.1986,1.1979,1.1957,1.1926,1.1919,1.1913,1.1912,1.1846,1.1846,1.1846,1.1867,1.1868,1.1869,0,0,0,0,0,1.217,1.2158,1.2149,1.2141,1.2092,1.2061,1.2054,1.203,1.2027,1.2019,1.1995,1.1981,1.1919,1.1924,1.1915,1.1908,1.1847,1.1846,1.1846,1.1867,1.1868,1.1869,0,0,0,0,0,0,1.2194,1.2152,1.2143,1.2118,1.2094,1.2056,1.2045,1.2032,1.2006,1.2005,1.1975,1.1966,1.1941,1.1922,1.1928,1.1887,1.1881,1.1879,1.19,1.1901,1.1902,1.1907,1.1909,0,0,0,0,0,1.2197,1.2177,1.2141,1.2123,1.2111,1.208,1.2066,1.205,1.2022,1.2011,1.1985,1.1957,1.1932,1.1915,1.189,1.1864,1.1855,1.1855,1.1856,1.1857,1.1855,1.184,1.184,1.1844,1.1844,1.1844,0,0,1.2202,1.2177,1.2165,1.2127,1.2106,1.2084,1.2071,1.2049,1.2033,1.2007,1.1979,1.1959,1.1926,1.19,1.1887,1.1883,1.1852,1.1857,1.1858,1.1855,1.184,1.1839,1.1839,1.1844,1.1844,1.1844,0,0,1.22,1.218,1.2162,1.2142,1.211,1.209,1.2086,1.205,1.2036,1.2008,1.1988,1.1967,1.1924,1.1901,1.1884,1.1874,1.1859,1.1866,1.1871,1.1856,1.1856,1.1855,1.1851,1.185,1.1865,1.1865,1.1865,0,1.221,1.2179,1.2155,1.2134,1.2117,1.2094,1.2076,1.2056,1.2017,1.2006,1.2002,1.1947,1.1924,1.1891,1.1889,1.1876,1.1869,1.187,1.1858,1.1857,1.1856,1.1852,1.1851,1.1866,1.1866,1.1866,1.1866,0,1.2192,1.217,1.216,1.2124,1.2106,1.2087,1.2058,1.2043,1.2028,1.2008,1.1979,1.195,1.1918,1.1909,1.1894,1.1874,1.1873,1.1864,1.1858,1.1858,1.1853,1.1851,1.1867,1.1867,1.1867,1.1866,0,0,1.2204,1.2156,1.2152,1.2136,1.2099,1.2081,1.206,1.203,1.2017,1.1991,1.1971,1.1935,1.1927,1.1908,1.189,1.1877,1.187,1.187,1.1869,1.1871,1.1846,1.1852,1.1851,1.1861,1.186,1.186,1.1849,0,1.2197,1.216,1.2137,1.2108,1.2087,1.2065,1.2046,1.2021,1.2002,1.198,1.1958,1.1933,1.1924,1.1912,1.1899,1.1874,1.1865,1.1875,1.1841,1.184,1.185,1.1849,1.1855,1.1846,1.1847,1.1846,1.1846,0,1.2184,1.216,1.2129,1.2095,1.2085,1.2069,1.2039,1.2019,1.199,1.1976,1.1955,1.1937,1.1913,1.1909,1.1874,1.1881,1.1866,1.1852,1.1851,1.1846,1.1843,1.1844,1.1842,1.1841,1.1843,1.1843,1.1844,0,1.2195,1.2155,1.2131,1.2117,1.2077,1.2066,1.2049,1.2019,1.2003,1.1976,1.1965,1.1936,1.192,1.1897,1.1871,1.1871,1.1838,1.1833,1.1825,1.1826,1.1819,1.182,1.1815,1.181,1.181,1.181,1.181,0,1.2189,1.2171,1.2136,1.2121,1.21,1.2074,1.2053,1.2033,1.2008,1.1988,1.1966,1.1948,1.1915,1.1893,1.1872,1.1846,1.1839,1.1826,1.1821,1.1828,1.183,1.1817,1.1817,1.181,1.181,1.181,1.181,0,1.2198,1.2174,1.2146,1.2111,1.2101,1.2087,1.2056,1.204,1.202,1.1995,1.1987,1.1955,1.1927,1.1899,1.1861,1.1847,1.1821,1.1814,1.1831,1.1828,1.1823,1.1823,1.1809,1.1806,1.1804,1.1804,1.1805,0,1.2196,1.2182,1.2145,1.2131,1.2114,1.2092,1.2075,1.2048,1.2031,1.1997,1.1985,1.1956,1.1931,1.1887,1.1859,1.183,1.1821,1.1819,1.1817,1.1824,1.1821,1.1822,1.182,1.1819,1.1819,1.182,1.182,0,1.2195,1.2183,1.2161,1.2133,1.2114,1.2091,1.2067,1.2056,1.2025,1.2007,1.1979,1.196,1.1921,1.1892,1.186,1.184,1.1824,1.1821,1.1817,1.1824,1.1834,1.1828,1.1833,1.1821,1.1821,1.1821,1.1821,1.1821,1.2197,1.2184,1.2156,1.2131,1.211,1.2088,1.2072,1.205,1.2026,1.1994,1.1979,1.1951,1.1921,1.1876,1.1857,1.1833,1.1829,1.1824,1.1823,1.1822,1.1823,1.1839,1.1827,1.1827,1.1827,1.1827,1.1827,0,1.2195,1.2176,1.2153,1.2121,1.2101,1.209,1.2062,1.2046,1.2022,1.1996,1.1972,1.1939,1.1911,1.1881,1.1851,1.1838,1.1829,1.183,1.1831,1.1826,1.1829,1.1835,1.1837,1.1837,1.1837,1.1837,1.1837,1.1837,1.2191,1.2167,1.2152,1.2117,1.2098,1.2071,1.2056,1.2035,1.2015,1.198,1.1957,1.1938,1.191,1.1877,1.185,1.1842,1.1831,1.1834,1.1824,1.1827,1.1826,1.1825,1.1831,1.1832,1.1832,1.1823,1.1823,1.1823]},{"header":{"parameterUnit":"m.s-1","parameterCategory":1,"la1":30.2991,"la2":30.254,"lo1":-89.0895,"lo2":-89.0444,"dy":0.0017,"dx":0.0017,"nx":28,"ny":28,"refTime":"2025-12-04T09:00:00:Z","depth":0,"parameterNumber":3,"parameterNumberName":"V-component_of_WINDS"},"data":[0,0,0,0,0,0,0,0,0,0,0,0,0,0,0,0,0,0,0,0,0,0,0,0,0,0,0,0,0,0,0,0,0,0,0,0,0,0,0,0,0,0,0,0,0,0,0,0,0,0,0,0,0,0,0,0,0,0,-4.6549,-4.6549,0,-4.6609,-4.661,-4.6611,-4.657,-4.6568,-4.6566,-4.6565,-4.6622,-4.6625,-4.6628,0,0,0,0,0,0,0,0,0,0,0,0,0,-4.6394,-4.6397,-4.6549,-4.6549,-4.655,-4.6609,-4.661,-4.6611,-4.657,-4.6568,-4.6566,-4.6564,-4.6621,-4.6625,-4.6629,0,0,0,0,0,0,0,0,0,0,0,0,0,-4.6459,-4.6398,-4.6548,-4.6537,-4.6537,-4.6609,-4.661,-4.6611,-4.6571,-4.6568,-4.6565,-4.6563,-4.662,-4.6624,-4.6629,-4.6714,0,0,-4.6644,-4.6646,0,0,0,0,0,0,0,0,-4.6455,-4.6464,-4.6538,-4.6538,-4.6538,-4.6579,-4.6577,-4.6646,-4.6572,-4.6558,-4.6565,-4.6561,-4.661,-4.6615,-4.6633,-4.6717,-4.672,-4.6645,-4.6647,-4.665,-4.6651,0,0,0,0,0,0,0,-4.6451,-4.6461,-4.6572,-4.6539,-4.6539,-4.6528,-4.6534,-4.659,-4.6598,-4.6559,-4.6556,-4.6564,-4.6609,-4.6628,-4.6634,-4.672,-4.6644,-4.6649,-4.6652,-4.6654,-4.6879,-4.6882,0,0,0,0,0,0,-4.6448,-4.6458,-4.6571,-4.6574,-4.6489,-4.6533,-4.654,-4.6569,-4.6598,-4.66,-4.6566,-4.6562,-4.6621,-4.6628,-4.6635,-4.6738,-4.665,-4.6654,-4.6657,-4.6876,-4.688,-4.6883,0,0,0,0,0,0,-4.6445,-4.6458,-4.6568,-4.6516,-4.6529,-4.6539,-4.6571,-4.6571,-4.659,-4.6603,-4.6604,-4.6584,-4.6619,-4.6629,-4.6696,-4.674,-4.6656,-4.6661,-4.6873,-4.6877,-4.6882,-4.6944,0,0,0,0,0,0,-4.644,-4.6457,-4.649,-4.6517,-4.6532,-4.6629,-4.6574,-4.6575,-4.6599,-4.6594,-4.662,-4.6622,-4.6618,-4.6689,-4.6701,-4.6745,-4.6664,-4.6869,-4.6875,-4.688,-4.6938,-4.695,-4.696,0,0,0,0,0,-4.6435,-4.6504,-4.6492,-4.6506,-4.6574,-4.6631,-4.664,-4.6635,-4.6603,-4.6636,-4.6645,-4.6621,-4.6733,-4.6696,-4.6709,-4.6755,-4.6866,-4.6873,-4.688,-4.6933,-4.6948,-4.696,0,0,0,0,0,0,-4.648,-4.6507,-4.6494,-4.6574,-4.6601,-4.6624,-4.6666,-4.665,-4.6685,-4.6678,-4.6669,-4.6675,-4.6746,-4.6757,-4.6715,-4.684,-4.6794,-4.6804,-4.683,-4.6844,-4.6855,-4.6851,-4.6669,0,0,0,0,0,-4.65,-4.6546,-4.6566,-4.6635,-4.6649,-4.6655,-4.668,-4.6674,-4.6701,-4.6711,-4.6725,-4.675,-4.6791,-4.6818,-4.6857,-4.6939,-4.6945,-4.6978,-4.6989,-4.6998,-4.7007,-4.7052,-4.7067,-4.6906,-4.6906,-4.6906,0,0,-4.654,-4.6561,-4.659,-4.6644,-4.6664,-4.6712,-4.6665,-4.6716,-4.6751,-4.6718,-4.6784,-4.6795,-4.6822,-4.6898,-4.6932,-4.691,-4.7053,-4.7007,-4.7014,-4.7018,-4.7061,-4.7076,-4.709,-4.6911,-4.691,-4.6909,0,0,-4.6638,-4.6658,-4.6718,-4.674,-4.6772,-4.6776,-4.679,-4.6817,-4.6824,-4.6889,-4.6867,-4.6907,-4.6977,-4.6999,-4.7019,-4.7127,-4.7107,-4.714,-4.7198,-4.7243,-4.7256,-4.7267,-4.7306,-4.732,-4.7148,-4.7148,-4.7149,0,-4.6683,-4.6755,-4.675,-4.6804,-4.6829,-4.6805,-4.6865,-4.6886,-4.6928,-4.6945,-4.692,-4.701,-4.7026,-4.7107,-4.7134,-4.7151,-4.7167,-4.7136,-4.7254,-4.7266,-4.7276,-4.7313,-4.7328,-4.7152,-4.7152,-4.7151,-4.7151,0,-4.681,-4.6859,-4.6904,-4.6948,-4.6978,-4.7034,-4.7038,-4.7069,-4.7061,-4.7067,-4.7135,-4.7155,-4.7197,-4.7216,-4.7208,-4.7297,-4.7282,-4.7256,-4.721,-4.7295,-4.733,-4.7344,-4.7158,-4.7156,-4.7155,-4.7154,0,0,-4.6936,-4.6979,-4.6995,-4.7016,-4.705,-4.7088,-4.7144,-4.7188,-4.7214,-4.7244,-4.7291,-4.7352,-4.7329,-4.7352,-4.7346,-4.7385,-4.7471,-4.7354,-4.7355,-4.7376,-4.7571,-4.7591,-4.7607,-4.7458,-4.7461,-4.7463,-4.7569,0,-4.7036,-4.7135,-4.7134,-4.7226,-4.7272,-4.7251,-4.73,-4.7326,-4.7334,-4.7373,-4.7381,-4.7426,-4.7391,-4.7405,-4.7443,-4.7453,-4.751,-4.7445,-4.7501,-4.7503,-4.7495,-4.7625,-4.7646,-4.7745,-4.7582,-4.7585,-4.7586,0,-4.7165,-4.7203,-4.73,-4.733,-4.7349,-4.7393,-4.7434,-4.7473,-4.7502,-4.7505,-4.7532,-4.752,-4.7577,-4.753,-4.7607,-4.7563,-4.7586,-4.7594,-4.7598,-4.7602,-4.755,-4.7634,-4.7776,-4.7791,-4.7608,-4.7606,-4.7604,0,-4.7249,-4.7323,-4.7392,-4.741,-4.7446,-4.7477,-4.7493,-4.752,-4.7547,-4.7582,-4.76,-4.7641,-4.7663,-4.7694,-4.7694,-4.766,-4.7772,-4.7725,-4.7776,-4.7776,-4.78,-4.7799,-4.7948,-4.7815,-4.7815,-4.7815,-4.7814,0,-4.7361,-4.7421,-4.743,-4.7472,-4.7539,-4.7537,-4.7603,-4.7616,-4.764,-4.7684,-4.7667,-4.7708,-4.7705,-4.7746,-4.7746,-4.781,-4.782,-4.7824,-4.7823,-4.7825,-4.7825,-4.784,-4.7833,-4.7818,-4.7818,-4.7817,-4.7816,0,-4.7465,-4.7473,-4.7546,-4.7576,-4.7584,-4.7633,-4.7657,-4.7697,-4.7704,-4.776,-4.7772,-4.7783,-4.7831,-4.7834,-4.7889,-4.7889,-4.7967,-4.7959,-4.7958,-4.7957,-4.8008,-4.8003,-4.8172,-4.8194,-4.8046,-4.8048,-4.8049,0,-4.7536,-4.7582,-4.7618,-4.7647,-4.7666,-4.7712,-4.7741,-4.774,-4.777,-4.7808,-4.7843,-4.789,-4.7928,-4.8005,-4.8017,-4.8059,-4.8051,-4.8108,-4.8057,-4.8059,-4.8053,-4.805,-4.8055,-4.8117,-4.8119,-4.812,-4.8121,0,-4.7661,-4.7664,-4.7706,-4.7751,-4.7786,-4.7821,-4.7853,-4.7877,-4.7881,-4.7915,-4.7965,-4.7995,-4.8052,-4.8098,-4.814,-4.8155,-4.8139,-4.8137,-4.8152,-4.8154,-4.8153,-4.8155,-4.7985,-4.8133,-4.8132,-4.8131,-4.8131,-4.813,-4.7751,-4.7792,-4.7824,-4.7872,-4.7897,-4.7929,-4.7968,-4.7982,-4.8024,-4.8072,-4.8069,-4.8124,-4.8153,-4.8208,-4.8226,-4.8269,-4.825,-4.827,-4.8275,-4.828,-4.8286,-4.8146,-4.8276,-4.8276,-4.8276,-4.8275,-4.8275,0,-4.7876,-4.7896,-4.7941,-4.7988,-4.8027,-4.8011,-4.8046,-4.8078,-4.8128,-4.8157,-4.8196,-4.8254,-4.8299,-4.8316,-4.836,-4.8391,-4.8385,-4.8403,-4.8401,-4.8405,-4.83,-4.8284,-4.8407,-4.8407,-4.8407,-4.8407,-4.8407,-4.8407,-4.7946,-4.8015,-4.8021,-4.8103,-4.8122,-4.8178,-4.82,-4.8228,-4.8252,-4.8318,-4.8357,-4.8369,-4.8393,-4.8439,-4.848,-4.8484,-4.8501,-4.8522,-4.8523,-4.8425,-4.8412,-4.8399,-4.8384,-4.8526,-4.8526,-4.8623,-4.8624,-4.8625]}]]